Location: ????????
(55.4052°N, 39.3778°E)
Time: 11:27:24
(UTC+00:00)

Daily predictions for brighter satellites

Satellite Brightness Start Highest point End
(mag) Time Altitude Azimuth Time Altitude Azimuth Time Altitude Azimuth
ATLAS 2AS CENTAUR R/B 4.1 18:28:51 10° W 18:35:43 45° N 18:42:17 10° ENE
Cosmos 614 Rocket 4.3 18:33:33 10° S 18:38:32 49° ESE 18:43:35 10° NE
Cosmos 1818 4.2 18:34:03 10° S 18:38:55 34° ESE 18:43:50 10° ENE
Meteor 1-27 Rocket 3.7 18:34:27 10° S 18:39:58 79° E 18:45:36 10° NNE
Lacrosse 4 Rocket 1.8 18:37:03 10° NW 18:41:02 53° WSW 18:45:05 10° SSE
Cosmos 1340 Rocket 2.8 18:40:34 10° S 18:44:33 80° E 18:48:32 10° NNE
Resurs 01 Rocket 4.4 18:44:35 10° WSW 18:46:44 13° W 18:48:54 10° NW
Okean O Rocket 4.3 18:46:49 10° WSW 18:49:17 15° W 18:51:45 10° NW
SL-16 R/B 4.3 18:44:54 10° NNW 18:49:18 22° NNE 18:53:41 10° ENE
Cosmos 1656 3.8 18:44:18 10° NW 18:49:45 70° WSW 18:55:13 10° SSE
Cosmos 1833 Rocket 3.9 18:45:42 10° SSE 18:50:04 24° ESE 18:54:28 10° NE
Terra 2.4 18:47:11 10° S 18:51:48 55° W 18:56:28 10° NNW
Cosmos 1805 3.3 18:50:04 10° NNW 18:53:48 74° W 18:57:29 10° S
H-2A R/B 4.2 18:51:04 10° ESE 18:54:27 23° ENE 18:57:52 10° N
Cosmos 1743 Rocket 4.5 18:51:34 10° NNW 18:55:50 47° W 19:00:05 10° SSW
Cosmos 1766 3.8 18:53:04 10° N 18:56:42 43° ENE 19:00:18 10° SE
Cosmos 1553 Rocket 4.4 18:53:57 10° N 18:59:52 50° ENE 19:05:47 10° SE
Cosmos 1603 4.2 18:54:49 10° SW 19:00:29 66° NW 19:06:14 10° NNE
Cosmos 2082 Rocket 4.3 19:03:04 10° E 19:03:42 10° E 19:04:21 10° E
Cosmos 1428 Rocket 4.5 19:00:18 10° S 19:06:22 75° E 19:12:29 10° NNE
Cosmos 2360 4.3 19:01:32 10° NW 19:07:17 80° WSW 19:12:59 10° SSE
Landsat 5 3.4 19:06:41 10° NNE 19:10:26 58° ESE 19:14:14 10° S
Cosmos 1470 3.8 19:07:37 10° N 19:10:59 32° ENE 19:14:18 10° SE
Cosmos 1151 Rocket 3.2 19:08:48 10° SSW 19:13:08 75° WNW 19:17:28 10° N
USA 281 3.4 19:07:32 10° SSE 19:14:07 74° WSW 19:20:46 10° NNW
Cosmos 1975 3.2 19:10:27 10° NNW 19:14:21 60° W 19:18:13 10° S
Meteor 1-18 Rocket 4.4 19:11:33 10° S 19:17:25 65° E 19:23:15 10° NNE
NOSS 3-3 (A) 4.0 19:12:31 10° SSW 19:17:54 51° SE 19:24:13 10° NE
MOS 1 Rocket 4.4 19:16:11 10° S 19:21:16 48° W 19:26:30 10° NNW
Cosmos 1092 Rocket 4.1 19:18:23 10° S 19:24:40 78° E 19:31:03 10° NNE
Cosmos 220 Rocket 4.1 19:23:26 10° SSW 19:27:46 79° WNW 19:32:05 10° NNE
Cosmos 1908 4.2 19:24:39 10° N 19:27:55 32° ENE 19:30:53 12° SE
ARIANE 5 R/B 2.8 19:25:29 12° SSE 19:29:26 62° ENE 19:33:43 10° N
NOSS 3-4 (A) 3.8 19:24:35 10° NW 19:31:11 79° SW 19:38:50 10° SE
NOSS 3-4 (C) 3.8 19:24:41 10° NW 19:31:17 79° SW 19:38:58 10° SE
Cosmos 1328 Rocket 3.5 19:28:33 10° S 19:32:52 80° E 19:37:12 10° NNE
CZ-2C R/B 4.3 19:29:37 10° NNE 19:33:51 39° E 19:37:29 13° SSE
Cosmos 1140 Rocket 4.1 19:34:28 11° S 19:39:00 38° ESE 19:43:49 10° NE
OPS 6432 4.3 19:39:11 10° NW 19:42:27 77° NE 19:45:18 12° ESE
Cosmos 1515 Rocket 3.8 19:40:01 13° S 19:43:42 52° E 19:47:55 10° NNE
Spot 4 4.4 19:40:14 12° SE 19:44:30 49° ENE 19:49:07 10° N
Cosmos 1697 Rocket 2.9 19:38:58 10° NW 19:44:33 64° WSW 19:49:25 14° SSE
Cosmos 2322 Rocket 4.1 19:39:49 10° NNW 19:44:36 27° NNE 19:49:23 10° E
Cosmos 1626 2.2 19:45:30 10° SSW 19:48:40 60° WNW 19:51:53 10° N
Cosmos 1470 Rocket 3.9 19:46:15 10° NNW 19:50:40 62° W 19:54:36 12° S
NOSS 3-3 (C) 3.9 19:45:53 10° SW 19:51:27 72° SE 19:58:10 10° NE
PSLV R/B 4.4 19:47:55 10° NNE 19:51:49 42° E 19:54:49 15° SSE
Cosmos 1869 Rocket 4.0 19:48:00 10° N 19:52:18 52° ENE 19:55:52 15° SSE
Cosmos 1633 Rocket 4.1 19:49:25 10° NNW 19:53:34 40° W 19:57:40 10° SSW
Cosmos 1707 3.2 19:51:54 16° SSE 19:54:28 40° E 19:57:54 10° NNE
Cosmos 1980 Rocket 2.3 19:49:02 10° NW 19:54:48 86° ENE 19:59:53 13° SE
Cosmos 1300 4.3 19:52:48 10° NNE 19:55:42 23° ENE 19:58:35 10° ESE
USA 234 3.5 19:50:46 10° E 19:57:20 79° N 20:03:54 10° W
Cosmos 2333 Rocket 4.2 19:54:52 10° NNW 19:59:41 27° NNE 20:04:31 10° E
Cosmos 1441 Rocket 3.4 19:57:09 10° N 20:00:41 54° ENE 20:03:19 17° SSE
Cosmos 44 Rocket 4.3 19:59:16 10° WNW 20:03:42 33° WSW 20:07:10 14° S
Lacrosse 5 rocket 1.4 20:01:47 10° WNW 20:05:57 57° SSW 20:09:28 13° SE
Cosmos 540 Rocket 3.8 20:01:12 10° NNW 20:06:20 62° ENE 20:10:59 13° SE
Cosmos 1763 Rocket 3.6 20:03:04 10° NNW 20:08:26 81° ENE 20:12:54 15° SSE
Cosmos 468 Rocket 4.3 20:05:38 10° NNW 20:10:55 63° ENE 20:15:39 13° SE
Cosmos 1066 Rocket 4.4 20:05:32 10° SSW 20:11:23 79° WNW 20:17:18 10° NNE
Meteor 2-12 Rocket 4.5 20:06:04 11° S 20:12:04 88° ESE 20:18:16 10° NNE
Cosmos 1842 3.0 20:10:07 16° S 20:13:02 83° E 20:16:44 10° NNE
Cosmos 1674 2.4 20:11:20 15° SSW 20:14:09 85° W 20:17:40 10° N
Cosmos 1933 Rocket 3.8 20:11:17 10° NNW 20:15:38 65° W 20:19:05 16° S
GP-B 4.2 20:16:27 10° NNE 20:20:28 33° E 20:23:40 14° SE
Cosmos 407 Rocket 3.7 20:16:11 14° S 20:20:32 54° ESE 20:25:38 10° NE
MINOTAUR 4 R/B 3.6 20:18:27 10° NNE 20:21:26 80° WNW 20:23:36 17° SSW
Cosmos 2369 3.7 20:16:28 10° NW 20:22:13 81° WSW 20:26:58 15° SSE
Cosmos 1818 3.9 20:16:45 10° WSW 20:22:13 70° NW 20:27:44 10° NE
Cosmos 1607 4.0 20:16:56 10° SSW 20:23:21 67° SE 20:29:48 10° NE
KORONAS-FOTON 3.7 20:20:40 16° SSW 20:23:35 84° WNW 20:27:19 10° N
ATLAS 2AS CENTAUR R/B 3.7 20:21:04 10° WNW 20:27:55 50° NNE 20:34:29 10° E
H-2A R/B 2.8 20:25:54 17° S 20:29:03 61° WSW 20:33:20 10° NNW
Cosmos 1455 4.4 20:30:14 10° NNE 20:32:26 16° ENE 20:34:38 10° ESE
Cosmos 2219 Rocket 4.2 20:28:02 10° NNW 20:32:47 27° NNE 20:37:31 10° E
Cosmos 1833 Rocket 2.8 20:27:47 10° SW 20:33:25 81° NW 20:39:05 10° NNE
RESURS DK-1 4.4 20:30:12 10° NNW 20:33:40 25° NE 20:37:06 10° E
SL-16 R/B 2.8 20:29:02 10° NNW 20:34:39 55° NE 20:40:13 10° SE
COSMOS 2406 4.0 20:33:19 17° SSE 20:37:14 38° ESE 20:42:30 10° NE
ALOS 2 2.6 20:34:53 18° SSE 20:38:07 86° W 20:42:32 10° NNW
Meteor 1-12 Rocket 4.4 20:33:08 10° NNW 20:39:05 84° ENE 20:43:55 17° SSE
S3M 4.2 20:32:55 10° NNW 20:39:17 70° W 20:44:31 16° S
Cosmos 1758 3.3 20:40:20 10° N 20:44:11 73° ENE 20:46:48 20° SSE
Cosmos 1470 4.1 20:43:06 10° NNW 20:46:19 28° W 20:48:57 13° SW
Cosmos 2082 Rocket 2.6 20:42:09 16° S 20:46:27 50° ESE 20:51:57 10° NE
Cosmos 2360 Rocket 3.4 20:41:27 10° NNW 20:46:51 41° NE 20:52:13 10° ESE
Cosmos 2251 Rocket 3.5 20:44:25 14° SSW 20:49:00 78° ESE 20:54:20 10° NNE
Meteor 2-10 Rocket 3.8 20:47:30 10° NNW 20:53:22 83° WSW 20:57:48 18° S
Cosmos 1707 Rocket 4.1 20:51:02 18° SSE 20:54:01 47° E 20:58:19 10° NNE
GEOS 3 Rocket 3.6 20:48:59 10° NE 20:54:14 87° SE 20:59:23 10° SW
Cosmos 724 4.3 20:53:25 10° SW 20:59:20 88° SE 21:05:11 10° NE
Cosmos 2315 Rocket 4.2 20:53:26 10° NNW 20:59:43 71° W 21:04:44 17° S
Meteor 1-13 Rocket 4.5 20:57:59 14° SSW 21:03:11 75° WNW 21:09:03 10° NNE
ARIANE 5 R/B 4.4 21:02:57 10° SW 21:06:13 21° W 21:09:31 10° NW
Okean 3 4.2 21:05:01 18° SSE 21:07:38 41° E 21:11:31 10° NNE
Cosmos 2237 4.2 21:03:39 10° NW 21:09:26 89° WSW 21:14:36 13° SSE
H-2A R/B 2.7 21:05:46 10° NNE 21:10:02 45° E 21:12:54 19° SSE
Cosmos 2285 Rocket 4.2 21:04:25 10° SW 21:10:44 72° WNW 21:17:09 10° NNE
Meteor 1-4 Rocket 4.2 21:10:32 13° SE 21:11:58 17° E 21:14:01 10° NE
Cosmos 1315 Rocket 4.5 21:14:00 13° SE 21:16:31 23° E 21:19:41 10° NE
BREEZE-M DEB (TANK) 4.2 21:15:49 10° SW 21:19:06 42° SSE 21:28:22 10° E
Cosmos 1908 Rocket 4.1 21:15:18 10° N 21:19:39 52° ENE 21:23:12 15° SSE
Cosmos 2278 3.8 21:14:47 10° NW 21:20:30 71° WSW 21:25:10 16° SSE
Cosmos 1140 Rocket 4.4 21:15:40 10° SW 21:20:43 47° NW 21:25:46 10° NNE
Cosmos 1346 Rocket 2.7 21:17:35 10° NNW 21:21:29 73° WSW 21:23:58 21° S
SL-24 R/B 4.4 21:18:25 10° NNE 21:23:09 84° ESE 21:27:08 18° SSW
Cosmos 1733 Rocket 3.3 21:18:59 10° NNW 21:23:16 59° W 21:26:12 20° S
SL-4 R/B 4.3 21:27:36 10° SE 21:27:41 10° SE 21:28:05 10° SE
Cosmos 2322 Rocket 2.3 21:23:49 10° NNW 21:29:31 79° NE 21:35:12 10° SE
Helios 1A Rocket 4.2 21:26:24 10° SE 21:29:53 34° ENE 21:33:23 10° N
Cosmos 1300 3.4 21:27:14 10° NNW 21:30:35 39° W 21:32:38 20° SSW
Cosmos 1400 Rocket 3.0 21:27:50 18° SSW 21:30:40 67° WNW 21:34:37 10° N
Cosmos 841 Rocket 3.6 21:26:48 10° NNW 21:32:01 69° WSW 21:36:05 17° SSE
BREEZE-M DEB (TANK) 1.6 21:28:51 10° WSW 21:32:34 50° S 21:34:36 10° E
Meteor 1-21 4.3 21:28:43 18° S 21:33:08 82° ESE 21:38:57 10° NNE
Cosmos 1980 Rocket 3.7 21:33:50 10° NW 21:38:09 23° WSW 21:41:37 13° SW
USA 234 3.2 21:33:50 10° ESE 21:40:25 79° SSW 21:47:02 10° WNW
Orbus 7S? 2.5 21:37:32 10° WSW 21:40:56 87° SSE 21:43:39 10° ENE
Lacrosse 5 rocket 3.0 21:40:57 10° W 21:43:35 17° SW 21:44:16 16° SW
Okean 1-7 3.3 21:41:35 19° S 21:44:34 61° E 21:48:52 10° NNE
Cosmos 2333 Rocket 2.4 21:39:08 10° NNW 21:44:53 76° NE 21:50:39 10° SE
Cosmos 2228 Rocket 3.5 21:41:50 16° SSW 21:45:16 58° WNW 21:49:46 10° N
Cosmos 1242 Rocket 4.2 21:47:51 12° SE 21:49:31 17° E 21:51:31 10° NE
Cosmos 1356 Rocket 3.6 21:51:21 18° SSW 21:54:18 67° WNW 21:58:29 10° N
Cosmos 1953 2.2 21:50:30 10° NNW 21:54:24 73° W 21:57:01 20° S
GP-B 4.1 21:53:38 10° NNW 21:57:42 37° WNW 22:00:59 14° SW
SL-27 R/B 4.2 21:56:27 12° SE 21:57:46 15° ESE 21:59:30 10° ENE
Genesis I 3.9 21:59:24 20° S 22:01:09 33° SE 22:04:23 10° ENE
SL-14 R/B 4.3 22:01:00 14° SW 22:03:56 36° WNW 22:07:29 10° N
Cosmos 1703 Rocket 3.8 22:01:24 18° S 22:04:40 66° E 22:09:07 10° NNE
Cosmos 1300 Rocket 3.8 22:01:53 10° N 22:06:12 65° ENE 22:10:02 13° SSE
Aureole 3 3.5 22:04:37 18° SW 22:06:35 44° WNW 22:09:55 10° N
Cosmos 1455 2.1 22:03:51 10° NNW 22:07:17 59° W 22:09:28 20° S
Cosmos 1862 Rocket 4.2 22:05:04 15° SW 22:08:24 47° WNW 22:12:39 10° N
Cosmos 676 Rocket 4.3 22:04:33 13° SW 22:09:15 69° WNW 22:14:36 10° NNE
Cosmos 1954 Rocket 4.5 22:05:17 11° SW 22:10:15 59° WNW 22:15:31 10° NNE
RESURS DK-1 2.3 22:07:43 10° NW 22:11:48 71° WSW 22:15:33 12° SSE
SJ 16-02 2.5 22:08:51 14° SSE 22:11:56 32° ESE 22:15:48 10° NE
Cosmos 1814 Rocket 4.0 22:09:03 10° NNW 22:14:18 80° WSW 22:19:32 10° SSE
Cosmos 2219 Rocket 2.4 22:11:55 10° NNW 22:17:37 77° NE 22:23:17 10° SE
SL-16 R/B 2.9 22:13:24 10° NW 22:18:37 38° WSW 22:22:42 16° S
ATLAS 2AS CENTAUR R/B 2.6 22:12:23 10° NW 22:19:20 81° SW 22:26:01 10° SE
COSMOS 2406 3.8 22:15:43 10° SW 22:21:23 57° NW 22:27:05 10° NNE
Cosmos 2322 4.3 22:21:58 10° NNW 22:27:40 62° NE 22:33:18 10° SE
Cosmos 2082 Rocket 3.1 22:25:11 10° WSW 22:30:40 45° NW 22:36:10 10° NNE
Cosmos 2360 Rocket 2.4 22:25:32 10° NW 22:31:05 56° WSW 22:36:34 10° SSE
Cosmos 2333 4.2 22:27:36 10° NW 22:33:19 70° WSW 22:39:02 10° SSE
Cosmos 839 Rocket 4.3 22:27:19 10° NW 22:34:45 65° SW 22:40:59 10° SSE
Cosmos 2242 Rocket 4.1 22:30:58 13° S 22:34:49 54° E 22:39:15 10° NNE
Cosmos 1745 Rocket 4.1 22:30:04 15° SSW 22:35:28 85° WNW 22:41:51 10° N
Cosmos 405 Rocket 4.2 22:33:46 10° N 22:37:06 32° ENE 22:40:26 10° SE
Okean 2 Rocket 4.4 22:33:17 10° N 22:37:26 38° ENE 22:41:34 10° SE
SL-16 R/B 3.9 22:31:51 10° ESE 22:37:35 39° ENE 22:43:19 10° N
CZ-2C R/B 3.3 22:34:57 10° SE 22:39:57 53° ENE 22:45:04 10° N
Okean 2 4.1 22:38:45 14° SW 22:41:51 42° WNW 22:45:41 10° N
Meteor 1-4 Rocket 3.2 22:42:38 15° SW 22:44:42 34° WNW 22:47:29 10° N
USA 267 3.6 22:38:37 10° ENE 22:44:59 51° SE 22:51:04 11° SW
H-2A R/B 3.5 22:41:43 10° N 22:45:36 30° WNW 22:49:26 10° WSW
Cosmos 2237 Rocket 3.7 22:45:41 10° NNW 22:51:04 40° NE 22:56:25 10° ESE
Cosmos 1315 Rocket 3.5 22:49:16 14° SW 22:52:26 44° WNW 22:56:16 10° N
Cosmos 1570 Rocket 4.0 22:47:18 10° NNW 22:52:40 85° WSW 22:58:01 10° SSE
COSMOS 2428 3.0 22:48:24 10° NNW 22:54:07 74° NE 22:59:48 10° SE
Cosmos 1782 Rocket 4.3 22:53:37 10° NNW 22:57:40 38° W 23:01:04 13° SSW
Cosmos 968 Rocket 3.5 22:56:50 13° SSW 23:01:24 83° WNW 23:06:37 10° NNE
H-2A R/B 4.2 22:58:19 10° NNE 23:02:09 44° E 23:05:57 10° S
Helios 1A Rocket 3.8 23:01:28 14° SSW 23:04:15 31° W 23:07:42 10° NNW
Cosmos 2208 Rocket 4.0 22:59:33 10° NNW 23:04:53 88° WSW 23:10:06 10° SSE
SL-4 R/B 3.1 23:02:20 13° SSW 23:05:26 30° SSE 23:09:19 10° E
Cosmos 2098 Rocket 3.9 23:00:50 10° NNW 23:06:25 80° W 23:12:48 10° S
Cosmos 1892 4.3 23:05:55 10° SSE 23:08:53 26° E 23:11:52 10° NNE
EXPRESS MD2 3.9 23:10:58 14° SW 23:12:43 27° SSE 23:16:04 10° ESE
Cosmos 2322 Rocket 3.4 23:08:30 10° NW 23:13:01 25° WSW 23:17:16 11° SSW
MOZ.5/SAFIR/RUBIN 5/SL-8 4.2 23:10:18 10° S 23:14:48 48° W 23:19:22 10° NNW
Resurs 1-4 Rocket 2.7 23:09:55 10° NNE 23:15:04 52° E 23:20:11 10° S
Cosmos 1408 2.4 23:15:08 14° SSW 23:17:35 52° WNW 23:20:31 10° N
Meteor 1-24 Rocket 4.0 23:14:00 10° S 23:20:01 79° E 23:25:55 10° NNE
Cosmos 1242 Rocket 3.2 23:19:14 12° SW 23:21:34 30° WNW 23:24:10 10° N
Nadezhda 3 Rocket 4.4 23:15:59 10° N 23:22:22 68° ENE 23:28:38 10° SSE
CZ-2D R/B 2.7 23:17:30 10° NNE 23:22:55 57° ESE 23:28:13 10° S
USA 234 3.7 23:18:00 10° SSE 23:24:03 38° SW 23:30:07 10° WNW
Cosmos 2297 Rocket 4.3 23:22:49 10° SE 23:26:38 19° E 23:30:29 10° ENE
OPS 8737 4.4 23:24:14 10° WNW 23:27:03 42° SW 23:29:56 10° SSE
Cosmos 2333 Rocket 3.3 23:23:59 10° NW 23:28:41 27° WSW 23:33:23 10° SSW
CRYOSAT 2 4.4 23:24:25 10° N 23:29:20 89° W 23:34:15 10° S
SL-27 R/B 2.8 23:27:59 11° SW 23:30:32 38° WNW 23:33:12 10° NNE
Cosmos 1703 3.3 23:29:18 11° SSW 23:32:55 63° WNW 23:36:38 10° N
Cosmos 2154 Rocket 4.5 23:29:55 10° S 23:35:59 61° E 23:42:08 10° NNE
IDEFIX/ARIANE 42P 2.6 23:31:49 10° NNE 23:37:08 89° W 23:42:24 10° SSW
Genesis I 3.8 23:33:57 10° WSW 23:37:22 46° NNW 23:40:52 10° NE
Cosmos 1455 Rocket 4.3 23:35:14 10° N 23:39:27 43° ENE 23:43:40 10° SE
NOSS 5 (C) 4.1 23:37:12 10° NW 23:40:28 77° SW 23:43:37 10° SE
ADEOS II 2.6 23:38:59 10° NNE 23:44:11 58° ESE 23:49:21 10° S
RESURS DK-1 4.4 23:47:27 10° W 23:48:45 11° WSW 23:50:04 10° WSW
CZ-4C R/B 4.2 23:47:16 10° SE 23:49:33 13° ESE 23:52:04 10° ENE
SJ 16-02 2.1 23:46:06 10° SW 23:50:13 42° NW 23:54:20 10° NNE
Cosmos 1825 2.2 23:49:17 10° S 23:52:40 68° E 23:56:06 10° NNE
Cosmos 1674 Rocket 3.6 23:51:03 10° SSW 23:55:30 84° WNW 23:59:56 10° N
